Location: Poughquag
(41.6090°N, 73.6820°W)
Time: 01:57:18
(UTC-04:00)

Vanguard 1 - Pass Details

Date: 29 May 2020
Orbit: 650 x 3833 km, 34.2° (Epoch: 06 July)

Event Time Altitude Azimuth Distance (km) Brightness Sun altitude
Rises 14:41:20 0° 284° (WNW) 7,906 15.0 59.7°
Reaches altitude 10° 14:49:26 10° 270° (W) 6,587 14.9 58.4°
Maximum altitude 15:01:18 19° 234° (SW) 5,054 14.7 56.5°
Drops below altitude 10° 15:10:30 10° 196° (SSW) 4,910 14.1 54.9°
Sets 15:15:16 0° 179° (S) 5,370 14.0 54.1°
